Location: The Saddle
(36.8333°N, 80.3417°W)
Time: 05:05:58
(UTC-04:00)

Vanguard 3 - Pass Details

Date: 25 February 2024
Orbit: 510 x 3234 km, 33.3° (Epoch: 24 April)

Event Time Altitude Azimuth Distance (km) Brightness Sun altitude
Rises 18:06:03 0° 204° (SSW) 6,080 12.2 0.2°
Reaches altitude 10° 18:10:22 10° 195° (SSW) 5,403 11.7 -0.6°
Maximum altitude 18:24:47 33° 139° (SE) 4,444 10.6 -3.5°
Drops below altitude 10° 18:40:43 10° 85° (E) 6,037 10.9 -6.6°
Enters shadow 18:42:04 - 82° (E) 6,247 10.9 -6.9°
